| time (UTC) | temp F | wind direction | speed MPH | gust MPH | rain 1hr in | rain 24hr in | rain mn in | humidity % | barometer mb |
| 20260502130631 | 44 | 249 | 2.0 | 3.0 | 0.00 | 0.00 | 0.00 | 87 | 1017.9 |
| 20260502123635 | 41 | 174 | 3.0 | 3.0 | 0.00 | 0.00 | 0.00 | 95 | 1017.9 |
| 20260502122440 | 40 | 161 | 1.0 | 3.0 | 0.00 | 0.00 | 0.00 | 95 | 1017.9 |
| 20260502121222 | 39 | 125 | 1.0 | 2.0 | 0.00 | 0.00 | 0.00 | 98 | 1017.9 |
| 20260502120644 | 39 | 113 | 0.0 | 2.0 | 0.00 | 0.00 | 0.00 | 99 | 1018.2 |
| 20260502115451 | 38 | 149 | 0.0 | 2.0 | 0.00 | 0.00 | 0.00 | 99 | 1017.9 |
| 20260502114813 | 38 | 128 | 0.0 | 1.0 | 0.00 | 0.00 | 0.00 | 99 | 1017.9 |
| 20260502114232 | 39 | 26 | 0.0 | 1.0 | 0.00 | 0.00 | 0.00 | 99 | 1018.2 |
| 20260502113611 | 38 | 9 | 1.0 | 2.0 | 0.00 | 0.00 | 0.00 | 99 | 1018.2 |
| 20260502113039 | 38 | 9 | 2.0 | 2.0 | 0.00 | 0.00 | 0.00 | 99 | 1017.9 |
| 20260502112437 | 37 | 14 | 2.0 | 2.0 | 0.00 | 0.00 | 0.00 | 99 | 1017.9 |
| 20260502111828 | 36 | 42 | 0.0 | 1.0 | 0.00 | 0.00 | 0.00 | 99 | 1017.9 |
| 20260502111226 | 35 | 57 | 1.0 | 2.0 | 0.00 | 0.00 | 0.00 | 99 | 1018.2 |
| 20260502110017 | 35 | 35 | 0.0 | 2.0 | 0.00 | 0.00 | 0.00 | 99 | 1017.9 |
| 20260502105418 | 34 | 48 | 0.0 | 1.0 | 0.00 | 0.00 | 0.00 | 99 | 1017.9 |
| 20260502104829 | 34 | 316 | 0.0 | 1.0 | 0.00 | 0.00 | 0.00 | 99 | 1018.2 |
| 20260502104217 | 33 | 45 | 0.0 | 1.0 | 0.00 | 0.00 | 0.00 | 99 | 1017.9 |
| 20260502103635 | 33 | 357 | 1.0 | 2.0 | 0.00 | 0.00 | 0.00 | 99 | 1017.9 |
| 20260502103043 | 34 | 38 | 2.0 | 2.0 | 0.00 | 0.00 | 0.00 | 99 | 1018.2 |
| 20260502102419 | 34 | 352 | 1.0 | 1.0 | 0.00 | 0.00 | 0.00 | 99 | 1017.9 |
| 20260502101846 | 34 | 143 | 0.0 | 1.0 | 0.00 | 0.00 | 0.00 | 99 | 1017.9 |
| 20260502100630 | 33 | 112 | 1.0 | 1.0 | 0.00 | 0.00 | 0.00 | 99 | 1017.9 |
| 20260502091252 | 34 | 169 | 1.0 | 2.0 | 0.00 | 0.00 | 0.00 | 99 | 1017.9 |
| 20260502090624 | 34 | 192 | 0.0 | 2.0 | 0.00 | 0.00 | 0.00 | 99 | 1017.9 |
| 20260502071224 | 36 | 48 | 0.0 | 1.0 | 0.00 | 0.00 | 0.00 | 99 | 1017.9 |
| 20260502070652 | 37 | 48 | 0.0 | 2.0 | 0.00 | 0.00 | 0.00 | 99 | 1017.9 |
| 20260502070035 | 37 | 130 | 0.0 | 1.0 | 0.00 | 0.00 | 0.00 | 99 | 1017.9 |
| 20260502063651 | 38 | 286 | 0.0 | 1.0 | 0.00 | 0.00 | 0.00 | 99 | 1017.9 |
| 20260502063042 | 37 | 270 | 1.0 | 1.0 | 0.00 | 0.00 | 0.00 | 99 | 1017.9 |
| 20260502061814 | 37 | 23 | 2.0 | 2.0 | 0.00 | 0.00 | 0.00 | 99 | 1018.2 |
| 20260502061249 | 37 | 319 | 0.0 | 0.0 | 0.00 | 0.00 | 0.00 | 99 | 1018.2 |
| 20260502060622 | 37 | 286 | 0.0 | 0.0 | 0.00 | 0.00 | 0.00 | 99 | 1018.2 |
| 20260502060047 | 37 | 157 | 0.0 | 0.0 | 0.00 | 0.00 | 0.00 | 98 | 1018.2 |
| 20260502055448 | 37 | 137 | 2.0 | 2.0 | 0.00 | 0.00 | 0.00 | 98 | 1018.2 |
| 20260502054820 | 38 | 167 | 2.0 | 2.0 | 0.00 | 0.00 | 0.00 | 98 | 1018.2 |
| 20260502054251 | 37 | 157 | 2.0 | 2.0 | 0.00 | 0.00 | 0.00 | 98 | 1018.6 |
| 20260502053021 | 37 | 82 | 0.0 | 1.0 | 0.00 | 0.00 | 0.00 | 97 | 1018.2 |
| 20260502052415 | 37 | 172 | 2.0 | 2.0 | 0.00 | 0.00 | 0.00 | 97 | 1018.6 |
| 20260502051826 | 38 | 152 | 2.0 | 3.0 | 0.00 | 0.00 | 0.00 | 96 | 1018.6 |
| 20260502051220 | 39 | 160 | 2.0 | 2.0 | 0.00 | 0.00 | 0.00 | 95 | 1018.6 |
| 20260502050628 | 39 | 128 | 2.0 | 2.0 | 0.00 | 0.00 | 0.00 | 95 | 1018.6 |
| 20260502050039 | 39 | 79 | 2.0 | 3.0 | 0.00 | 0.00 | 0.00 | 94 | 1018.2 |
| 20260502045433 | 39 | 107 | 2.0 | 2.0 | 0.00 | 0.00 | 0.00 | 95 | 1018.6 |
| 20260502044838 | 39 | 105 | 1.0 | 2.0 | 0.00 | 0.00 | 0.00 | 95 | 1018.6 |
| 20260502043629 | 39 | 263 | 1.0 | 1.0 | 0.00 | 0.00 | 0.00 | 94 | 1018.6 |
| 20260502043043 | 39 | 309 | 2.0 | 2.0 | 0.00 | 0.00 | 0.00 | 95 | 1018.6 |
| 20260502042435 | 39 | 303 | 2.0 | 2.0 | 0.00 | 0.00 | 0.00 | 95 | 1018.6 |
| 20260502041810 | 39 | 294 | 1.0 | 2.0 | 0.00 | 0.00 | 0.00 | 95 | 1018.2 |
| 20260502041217 | 38 | 3 | 0.0 | 1.0 | 0.00 | 0.00 | 0.00 | 95 | 1018.6 |
| 20260502040649 | 38 | 251 | 0.0 | 1.0 | 0.00 | 0.00 | 0.00 | 94 | 1018.6 |
| 20260502040019 | 39 | 23 | 0.0 | 2.0 | 0.00 | 0.00 | 0.02 | 94 | 1018.2 |
| 20260502035442 | 39 | 58 | 0.0 | 1.0 | 0.00 | 0.00 | 0.02 | 93 | 1018.6 |
| 20260502034810 | 40 | 14 | 0.0 | 1.0 | 0.00 | 0.00 | 0.02 | 92 | 1018.6 |
| 20260502034246 | 40 | 36 | 1.0 | 2.0 | 0.00 | 0.00 | 0.02 | 92 | 1018.6 |
| 20260502033649 | 40 | 344 | 1.0 | 2.0 | 0.00 | 0.00 | 0.02 | 91 | 1018.6 |
| 20260502033012 | 40 | 355 | 0.0 | 2.0 | 0.00 | 0.00 | 0.02 | 90 | 1018.6 |
| 20260502032426 | 41 | 342 | 0.0 | 1.0 | 0.00 | 0.00 | 0.02 | 88 | 1018.9 |
| 20260502031841 | 41 | 314 | 2.0 | 2.0 | 0.00 | 0.00 | 0.02 | 88 | 1018.9 |
| 20260502031213 | 41 | 194 | 0.0 | 1.0 | 0.00 | 0.00 | 0.02 | 88 | 1018.6 |
| 20260502030616 | 41 | 194 | 0.0 | 1.0 | 0.00 | 0.00 | 0.02 | 88 | 1018.6 |
| 20260502030046 | 42 | 123 | 0.0 | 1.0 | 0.00 | 0.00 | 0.02 | 87 | 1018.6 |
| 20260502025414 | 41 | 31 | 0.0 | 1.0 | 0.00 | 0.00 | 0.02 | 86 | 1018.6 |
| 20260502024827 | 42 | 128 | 0.0 | 0.0 | 0.00 | 0.00 | 0.02 | 85 | 1018.2 |
| 20260502024219 | 42 | 297 | 0.0 | 1.0 | 0.00 | 0.00 | 0.02 | 85 | 1018.2 |
| 20260502023624 | 43 | 263 | 0.0 | 2.0 | 0.00 | 0.00 | 0.02 | 84 | 1018.6 |
| 20260502023047 | 42 | 268 | 1.0 | 2.0 | 0.00 | 0.00 | 0.02 | 84 | 1018.2 |
| 20260502022427 | 43 | 298 | 0.0 | 2.0 | 0.00 | 0.00 | 0.02 | 83 | 1017.9 |
| 20260502021812 | 43 | 328 | 2.0 | 2.0 | 0.00 | 0.00 | 0.02 | 83 | 1017.9 |
| 20260502021234 | 43 | 330 | 2.0 | 2.0 | 0.00 | 0.00 | 0.02 | 83 | 1017.9 |
| 20260502020614 | 44 | 332 | 2.0 | 3.0 | 0.00 | 0.00 | 0.02 | 82 | 1017.6 |
| 20260502020036 | 44 | 304 | 3.0 | 4.0 | 0.00 | 0.00 | 0.02 | 81 | 1017.9 |
| 20260502015431 | 44 | 315 | 3.0 | 4.0 | 0.00 | 0.00 | 0.02 | 81 | 1017.9 |
| 20260502014842 | 44 | 295 | 3.0 | 4.0 | 0.00 | 0.00 | 0.02 | 79 | 1017.6 |
| 20260502014227 | 44 | 264 | 2.0 | 6.0 | 0.00 | 0.00 | 0.02 | 79 | 1017.9 |
| 20260502013620 | 45 | 295 | 3.0 | 6.0 | 0.00 | 0.00 | 0.02 | 78 | 1017.6 |
| 20260502013036 | 45 | 303 | 4.0 | 7.0 | 0.00 | 0.00 | 0.02 | 77 | 1017.6 |
| 20260502012450 | 45 | 332 | 2.0 | 4.0 | 0.00 | 0.00 | 0.02 | 77 | 1017.6 |
| 20260502011841 | 46 | 299 | 5.0 | 6.0 | 0.00 | 0.00 | 0.02 | 76 | 1017.2 |
| 20260502011224 | 46 | 255 | 2.0 | 3.0 | 0.00 | 0.00 | 0.02 | 77 | 1017.2 |
| 20260502010625 | 46 | 302 | 6.0 | 10.0 | 0.00 | 0.00 | 0.02 | 74 | 1016.9 |
| 20260502010053 | 46 | 289 | 5.0 | 5.0 | 0.00 | 0.00 | 0.02 | 76 | 1016.5 |
| 20260502005446 | 47 | 296 | 8.0 | 10.0 | 0.00 | 0.00 | 0.02 | 72 | 1016.9 |
| 20260502004843 | 47 | 296 | 8.0 | 9.0 | 0.00 | 0.00 | 0.02 | 72 | 1016.9 |
| 20260502004227 | 47 | 275 | 5.0 | 9.0 | 0.00 | 0.00 | 0.02 | 72 | 1016.5 |
| 20260502003649 | 48 | 294 | 12.0 | 12.0 | 0.00 | 0.00 | 0.02 | 70 | 1016.2 |
| 20260502002449 | 48 | 297 | 7.0 | 10.0 | 0.00 | 0.00 | 0.02 | 69 | 1015.9 |
| 20260502001832 | 48 | 307 | 11.0 | 12.0 | 0.00 | 0.00 | 0.02 | 73 | 1015.9 |
| 20260502001246 | 49 | 297 | 8.0 | 15.0 | 0.00 | 0.00 | 0.02 | 74 | 1015.5 |
| 20260502000031 | 50 | 299 | 10.0 | 12.0 | 0.00 | 0.00 | 0.02 | 75 | 1015.5 |
| 20260501235453 | 50 | 257 | 3.0 | 4.0 | 0.00 | 0.00 | 0.02 | 82 | 1015.2 |
| 20260501234840 | 50 | 241 | 3.0 | 4.0 | 0.00 | 0.00 | 0.02 | 81 | 1015.2 |
| 20260501234253 | 50 | 270 | 1.0 | 3.0 | 0.00 | 0.00 | 0.02 | 82 | 1014.9 |
| 20260501233644 | 50 | 258 | 4.0 | 4.0 | 0.00 | 0.00 | 0.02 | 80 | 1014.9 |
| 20260501233024 | 50 | 266 | 0.0 | 5.0 | 0.00 | 0.00 | 0.02 | 81 | 1014.9 |
| 20260501232442 | 50 | 233 | 3.0 | 3.0 | 0.00 | 0.00 | 0.02 | 80 | 1014.5 |
| 20260501231817 | 51 | 269 | 3.0 | 5.0 | 0.00 | 0.00 | 0.02 | 80 | 1014.5 |
| 20260501231255 | 51 | 256 | 3.0 | 6.0 | 0.00 | 0.00 | 0.02 | 80 | 1014.5 |
| 20260501230650 | 51 | 232 | 2.0 | 3.0 | 0.00 | 0.00 | 0.02 | 80 | 1014.5 |
| 20260501230036 | 50 | 232 | 0.0 | 5.0 | 0.00 | 0.00 | 0.02 | 79 | 1014.5 |
| 20260501225415 | 50 | 206 | 3.0 | 8.0 | 0.00 | 0.00 | 0.02 | 80 | 1014.5 |
| 20260501224827 | 50 | 249 | 5.0 | 10.0 | 0.00 | 0.00 | 0.02 | 81 | 1014.5 |
| 20260501224233 | 50 | 202 | 2.0 | 6.0 | 0.00 | 0.00 | 0.02 | 81 | 1014.5 |
| 20260501223616 | 50 | 216 | 1.0 | 8.0 | 0.00 | 0.00 | 0.02 | 81 | 1014.5 |
| 20260501223053 | 50 | 264 | 0.0 | 5.0 | 0.00 | 0.00 | 0.02 | 81 | 1014.5 |
| 20260501222451 | 50 | 169 | 5.0 | 8.0 | 0.00 | 0.00 | 0.02 | 81 | 1014.5 |
| 20260501221839 | 50 | 169 | 6.0 | 6.0 | 0.00 | 0.00 | 0.02 | 82 | 1014.5 |
| 20260501221246 | 50 | 175 | 3.0 | 6.0 | 0.00 | 0.00 | 0.02 | 85 | 1014.5 |
| 20260501220645 | 50 | 133 | 5.0 | 5.0 | 0.00 | 0.00 | 0.02 | 84 | 1014.5 |
| 20260501220021 | 50 | 158 | 3.0 | 6.0 | 0.00 | 0.00 | 0.02 | 86 | 1014.5 |
| 20260501215415 | 49 | 292 | 2.0 | 4.0 | 0.00 | 0.00 | 0.02 | 86 | 1014.9 |
| 20260501214238 | 49 | 198 | 2.0 | 2.0 | 0.00 | 0.00 | 0.02 | 88 | 1014.5 |
| 20260501213041 | 49 | 244 | 4.0 | 5.0 | 0.00 | 0.00 | 0.02 | 85 | 1014.5 |
| 20260501211829 | 50 | 247 | 3.0 | 9.0 | 0.00 | 0.00 | 0.02 | 84 | 1014.5 |
| 20260501211210 | 50 | 262 | 4.0 | 5.0 | 0.00 | 0.00 | 0.01 | 86 | 1014.5 |
| 20260501210617 | 50 | 349 | 1.0 | 4.0 | 0.00 | 0.00 | 0.01 | 84 | 1014.5 |
| 20260501210030 | 50 | 272 | 4.0 | 4.0 | 0.00 | 0.00 | 0.01 | 84 | 1014.5 |
| 20260501205421 | 50 | 240 | 4.0 | 5.0 | 0.00 | 0.00 | 0.01 | 83 | 1014.5 |
| 20260501204849 | 50 | 269 | 3.0 | 4.0 | 0.00 | 0.00 | 0.01 | 83 | 1014.5 |
| 20260501203622 | 50 | 284 | 5.0 | 12.0 | 0.00 | 0.00 | 0.01 | 81 | 1014.5 |
| 20260501202444 | 51 | 247 | 4.0 | 10.0 | 0.00 | 0.00 | 0.01 | 80 | 1014.2 |
| 20260501201809 | 51 | 247 | 2.0 | 6.0 | 0.00 | 0.00 | 0.01 | 82 | 1014.2 |
| 20260501201239 | 51 | 246 | 4.0 | 5.0 | 0.00 | 0.00 | 0.01 | 83 | 1014.2 |
| 20260501200048 | 50 | 285 | 4.0 | 5.0 | 0.00 | 0.00 | 0.01 | 86 | 1014.2 |
| 20260501194853 | 51 | 282 | 8.0 | 12.0 | 0.00 | 0.00 | 0.01 | 80 | 1014.5 |
| 20260501194230 | 53 | 260 | 7.0 | 9.0 | 0.00 | 0.00 | 0.00 | 70 | 1014.2 |
| 20260501193623 | 53 | 293 | 5.0 | 9.0 | 0.00 | 0.00 | 0.00 | 69 | 1013.8 |
| 20260501193039 | 54 | 280 | 6.0 | 11.0 | 0.00 | 0.00 | 0.00 | 67 | 1013.8 |
| 20260501192423 | 56 | 275 | 7.0 | 11.0 | 0.00 | 0.00 | 0.00 | 60 | 1013.5 |
| 20260501191236 | 57 | 271 | 4.0 | 7.0 | 0.00 | 0.00 | 0.00 | 51 | 1013.5 |
| 20260501190645 | 58 | 283 | 4.0 | 4.0 | 0.00 | 0.00 | 0.00 | 55 | 1013.5 |
| 20260501190012 | 58 | 256 | 4.0 | 7.0 | 0.00 | 0.00 | 0.00 | 51 | 1013.5 |
| 20260501185428 | 59 | 264 | 6.0 | 6.0 | 0.00 | 0.00 | 0.00 | 47 | 1013.2 |
| 20260501184841 | 59 | 243 | 4.0 | 5.0 | 0.00 | 0.00 | 0.00 | 50 | 1013.2 |
| 20260501184223 | 59 | 209 | 6.0 | 10.0 | 0.00 | 0.00 | 0.00 | 49 | 1013.5 |
| 20260501183648 | 59 | 258 | 2.0 | 5.0 | 0.00 | 0.00 | 0.00 | 50 | 1013.2 |
| 20260501182421 | 59 | 182 | 9.0 | 15.0 | 0.00 | 0.00 | 0.00 | 45 | 1013.2 |
| 20260501181823 | 60 | 208 | 8.0 | 15.0 | 0.00 | 0.00 | 0.00 | 44 | 1013.2 |
| 20260501181238 | 59 | 259 | 2.0 | 8.0 | 0.00 | 0.00 | 0.00 | 45 | 1013.2 |
| 20260501180653 | 58 | 216 | 1.0 | 6.0 | 0.00 | 0.00 | 0.00 | 49 | 1013.5 |
| 20260501180037 | 58 | 114 | 2.0 | 8.0 | 0.00 | 0.00 | 0.00 | 52 | 1013.5 |
| 20260501172428 | 58 | 259 | 7.0 | 8.0 | 0.00 | 0.00 | 0.00 | 46 | 1013.8 |
| 20260501171232 | 58 | 166 | 4.0 | 12.0 | 0.00 | 0.00 | 0.00 | 50 | 1013.8 |
| 20260501170612 | 59 | 196 | 3.0 | 5.0 | 0.00 | 0.00 | 0.00 | 54 | 1013.8 |
| 20260501170023 | 60 | 166 | 6.0 | 12.0 | 0.00 | 0.00 | 0.00 | 50 | 1013.5 |
| 20260501164851 | 59 | 120 | 5.0 | 8.0 | 0.00 | 0.00 | 0.00 | 46 | 1013.8 |
| 20260501164237 | 58 | 162 | 2.0 | 10.0 | 0.00 | 0.00 | 0.00 | 46 | 1013.8 |
| 20260501163644 | 58 | 166 | 7.0 | 11.0 | 0.00 | 0.00 | 0.00 | 49 | 1013.8 |
| 20260501162426 | 58 | 45 | 2.0 | 9.0 | 0.00 | 0.00 | 0.00 | 47 | 1013.8 |
| 20260501160626 | 57 | 204 | 5.0 | 12.0 | 0.00 | 0.00 | 0.00 | 47 | 1014.2 |
| 20260501160022 | 57 | 122 | 5.0 | 8.0 | 0.00 | 0.00 | 0.00 | 55 | 1014.5 |
| 20260501155433 | 58 | 123 | 3.0 | 10.0 | 0.00 | 0.00 | 0.00 | 55 | 1014.5 |
| 20260501154235 | 56 | 153 | 2.0 | 9.0 | 0.00 | 0.00 | 0.00 | 60 | 1014.9 |
| 20260501153032 | 56 | 168 | 8.0 | 9.0 | 0.00 | 0.00 | 0.00 | 59 | 1014.9 |
| 20260501152413 | 55 | 172 | 5.0 | 6.0 | 0.00 | 0.00 | 0.00 | 61 | 1014.9 |
| 20260501151832 | 55 | 166 | 3.0 | 5.0 | 0.00 | 0.00 | 0.00 | 64 | 1014.9 |
| 20260501145451 | 53 | 145 | 4.0 | 9.0 | 0.00 | 0.00 | 0.00 | 72 | 1015.2 |
| 20260501144210 | 52 | 144 | 7.0 | 10.0 | 0.00 | 0.00 | 0.00 | 71 | 1015.2 |
| 20260501143622 | 52 | 181 | 5.0 | 11.0 | 0.00 | 0.00 | 0.00 | 70 | 1015.2 |
| 20260501143020 | 52 | 155 | 4.0 | 6.0 | 0.00 | 0.00 | 0.00 | 72 | 1015.2 |
| 20260501142410 | 52 | 60 | 1.0 | 7.0 | 0.00 | 0.00 | 0.00 | 74 | 1015.5 |